QPF
0.06 0.07 0.08 0.07 0.05 0.05 0.05 0.05 0.03 0.02 0.02 0.02 0.03 0.02 0.02 0.02 0.02 0.02 0.02 0.01 0.01 0.01 0.01 0.01 0.01 0.02 0.02 0.02 0.02 0.02 0.02 0.02 0.02 0.01 0.01 0.01 0.01 0.01 0.01 0.01 0.00 0.00 0.00
0.05 0.05 0.06 0.07 0.07 0.06 0.05 0.04 0.04 0.04 0.03 0.03 0.02 0.02 0.01 0.02 0.02 0.01 0.01 0.01 0.01 0.01 0.01 0.01 0.02 0.02 0.02 0.03 0.03 0.03 0.03 0.03 0.03 0.03 0.02 0.02 0.01 0.01 0.01 0.01 0.01 0.01 0.01
0.04 0.05 0.05 0.04 0.05 0.05 0.05 0.04 0.04 0.05 0.03 0.02 0.02 0.02 0.02 0.01 0.01 0.01 0.01 0.02 0.01 0.01 0.01 0.00 0.01 0.01 0.02 0.03 0.04 0.05 0.05 0.05 0.05 0.04 0.04 0.03 0.03 0.02 0.01 0.01 0.01 0.01 0.01
0.03 0.04 0.05 0.05 0.05 0.06 0.05 0.04 0.03 0.03 0.03 0.03 0.02 0.02 0.01 0.02 0.02 0.01 0.01 0.01 0.01 0.01 0.01 0.01 0.01 0.01 0.01 0.02 0.03 0.05 0.07 0.08 0.08 0.07 0.06 0.04 0.03 0.02 0.01 0.01 0.01 0.01 0.01
0.04 0.03 0.04 0.05 0.05 0.05 0.05 0.04 0.03 0.03 0.02 0.02 0.02 0.02 0.02 0.02 0.02 0.02 0.02 0.01 0.02 0.02 0.02 0.02 0.02 0.02 0.01 0.02 0.03 0.04 0.06 0.07 0.08 0.08 0.08 0.06 0.05 0.04 0.03 0.02 0.02 0.01 0.01
0.07 0.05 0.04 0.04 0.05 0.04 0.05 0.04 0.03 0.03 0.02 0.02 0.03 0.02 0.02 0.02 0.02 0.02 0.02 0.02 0.02 0.02 0.02 0.02 0.02 0.02 0.02 0.02 0.03 0.04 0.05 0.06 0.06 0.07 0.08 0.08 0.07 0.06 0.06 0.05 0.05 0.03 0.02
0.05 0.06 0.06 0.05 0.05 0.05 0.04 0.05 0.06 0.04 0.03 0.03 0.03 0.03 0.02 0.02 0.02 0.02 0.02 0.02 0.02 0.02 0.03 0.03 0.03 0.03 0.03 0.04 0.04 0.04 0.04 0.05 0.07 0.09 0.10 0.11 0.11 0.09 0.08 0.07 0.06 0.06 0.05
0.01 0.01 0.03 0.04 0.05 0.07 0.08 0.08 0.08 0.07 0.05 0.04 0.04 0.03 0.02 0.02 0.01 0.02 0.03 0.04 0.04 0.04 0.04 0.04 0.04 0.04 0.03 0.04 0.05 0.04 0.04 0.04 0.06 0.09 0.11 0.12 0.13 0.14 0.12 0.10 0.09 0.08 0.08
0.00 0.00 0.00 0.01 0.02 0.03 0.05 0.06 0.06 0.07 0.06 0.04 0.04 0.04 0.04 0.02 0.02 0.02 0.03 0.05 0.06 0.06 0.05 0.05 0.05 0.05 0.05 0.05 0.04 0.04 0.04 0.04 0.05 0.08 0.10 0.13 0.15 0.16 0.16 0.13 0.11 0.10 0.10
0.00 0.00 0.00 0.00 0.00 0.01 0.02 0.03 0.03 0.03 0.03 0.03 0.03 0.03 0.04 0.04 0.04 0.03 0.03 0.05 0.07 0.08 0.08 0.07 0.06 0.06 0.05 0.05 0.05 0.05 0.05 0.05 0.05 0.06 0.08 0.11 0.14 0.15 0.17 0.17 0.15 0.12 0.11
0.00 0.00 0.00 0.00 0.00 0.00 0.01 0.01 0.01 0.01 0.02 0.03 0.04 0.04 0.03 0.04 0.04 0.04 0.04 0.03 0.05 0.07 0.08 0.09 0.09 0.08 0.07 0.06 0.05 0.06 0.06 0.06 0.06 0.06 0.08 0.09 0.11 0.13 0.14 0.16 0.19 0.19 0.16
0.00 0.00 0.00 0.00 0.00 0.00 0.00 0.00 0.01 0.01 0.02 0.02 0.03 0.03 0.03 0.03 0.03 0.04 0.04 0.04 0.04 0.04 0.05 0.06 0.06 0.06 0.07 0.07 0.07 0.08 0.08 0.08 0.08 0.07 0.07 0.07 0.08 0.11 0.13 0.16 0.17 0.19 0.20
0.00 0.00 0.00 0.00 0.00 0.01 0.01 0.01 0.01 0.01 0.01 0.02 0.02 0.03 0.03 0.04 0.04 0.05 0.05 0.05 0.04 0.03 0.03 0.03 0.03 0.03 0.03 0.04 0.05 0.07 0.06 0.07 0.07 0.08 0.07 0.08 0.08 0.09 0.11 0.13 0.14 0.15 0.17
0.00 0.00 0.00 0.00 0.00 0.00 0.00 0.00 0.00 0.01 0.01 0.01 0.02 0.02 0.03 0.04 0.05 0.06 0.07 0.07 0.06 0.05 0.04 0.03 0.04 0.03 0.04 0.04 0.05 0.05 0.04 0.04 0.04 0.05 0.05 0.06 0.07 0.08 0.09 0.11 0.14 0.16 0.17
0.00 0.00 0.00 0.00 0.00 0.00 0.00 0.00 0.00 0.00 0.01 0.01 0.02 0.02 0.02 0.02 0.03 0.04 0.04 0.05 0.06 0.05 0.04 0.03 0.04 0.04 0.04 0.03 0.04 0.04 0.04 0.04 0.04 0.04 0.04 0.04 0.04 0.04 0.05 0.05 0.08 0.10 0.13
0.00 0.00 0.00 0.00 0.00 0.00 0.00 0.00 0.00 0.00 0.00 0.01 0.01 0.02 0.02 0.01 0.02 0.02 0.02 0.02 0.03 0.03 0.03 0.03 0.03 0.02 0.03 0.03 0.03 0.03 0.04 0.04 0.03 0.03 0.03 0.03 0.03 0.03 0.04 0.05 0.05 0.06 0.07
0.00 0.00 0.00 0.00 0.00 0.00 0.00 0.00 0.00 0.00 0.00 0.00 0.01 0.01 0.01 0.01 0.02 0.02 0.02 0.02 0.02 0.02 0.03 0.02 0.02 0.01 0.02 0.02 0.03 0.03 0.03 0.03 0.03 0.04 0.04 0.03 0.03 0.03 0.03 0.04 0.04 0.06 0.06
0.00 0.00 0.00 0.00 0.00 0.00 0.00 0.00 0.00 0.00 0.00 0.00 0.00 0.01 0.01 0.01 0.01 0.02 0.02 0.02 0.02 0.02 0.03 0.03 0.03 0.02 0.03 0.03 0.03 0.03 0.03 0.03 0.02 0.03 0.03 0.02 0.02 0.02 0.02 0.02 0.03 0.04 0.05
0.00 0.00 0.00 0.00 0.00 0.00 0.01 0.01 0.00 0.00 0.00 0.00 0.00 0.01 0.01 0.01 0.01 0.01 0.01 0.02 0.02 0.03 0.03 0.04 0.03 0.03 0.03 0.02 0.03 0.03 0.03 0.03 0.02 0.01 0.01 0.01 0.01 0.01 0.01 0.01 0.02 0.02 0.04
0.00 0.00 0.00 0.00 0.00 0.00 0.00 0.00 0.00 0.00 0.00 0.00 0.00 0.01 0.01 0.01 0.01 0.01 0.01 0.01 0.01 0.02 0.02 0.03 0.03 0.03 0.03 0.02 0.02 0.02 0.02 0.02 0.02 0.01 0.01 0.01 0.02 0.02 0.02 0.02 0.01 0.02 0.02
0.00 0.00 0.00 0.00 0.00 0.00 0.00 0.00 0.00 0.00 0.00 0.00 0.00 0.00 0.00 0.01 0.01 0.01 0.01 0.01 0.01 0.01 0.01 0.01 0.02 0.02 0.02 0.02 0.02 0.02 0.02 0.02 0.01 0.01 0.01 0.01 0.01 0.01 0.01 0.02 0.02 0.02 0.02
0.01 0.01 0.00 0.00 0.00 0.00 0.01 0.01 0.01 0.01 0.01 0.01 0.00 0.00 0.00 0.00 0.00 0.01 0.01 0.01 0.00 0.00 0.01 0.01 0.02 0.02 0.02 0.02 0.01 0.01 0.01 0.01 0.01 0.01 0.01 0.01 0.01 0.01 0.02 0.02 0.02 0.02 0.02
0.01 0.01 0.01 0.01 0.01 0.01 0.01 0.01 0.01 0.01 0.01 0.01 0.01 0.00 0.00 0.00 0.00 0.00 0.00 0.00 0.00 0.00 0.00 0.01 0.01 0.01 0.01 0.01 0.01 0.01 0.01 0.01 0.01 0.00 0.00 0.01 0.01 0.02 0.02 0.01 0.01 0.01 0.01
0.01 0.01 0.01 0.01 0.01 0.01 0.01 0.01 0.01 0.01 0.01 0.00 0.00 0.00 0.00 0.00 0.00 0.00 0.00 0.00 0.00 0.00 0.00 0.01 0.01 0.00 0.00 0.00 0.01 0.01 0.01 0.01 0.01 0.00 0.01 0.01 0.01 0.01 0.01 0.01 0.01 0.01 0.01
0.01 0.01 0.01 0.01 0.01 0.01 0.01 0.01 0.00 0.00 0.00 0.01 0.00 0.00 0.00 0.00 0.00 0.00 0.00 0.00 0.00 0.00 0.00 0.01 0.00 0.00 0.00 0.00 0.01 0.01 0.01 0.01 0.01 0.00 0.00 0.01 0.01 0.01 0.01 0.00 0.01 0.01 0.01
0.00 0.00 0.00 0.00 0.00 0.00 0.01 0.01 0.00 0.00 0.01 0.01 0.01 0.01 0.01 0.01 0.01 0.00 0.00 0.00 0.00 0.00 0.00 0.00 0.00 0.00 0.00 0.00 0.00 0.00 0.01 0.01 0.02 0.01 0.00 0.01 0.01 0.01 0.01 0.01 0.00 0.00 0.01
MSLP
1017.72 1017.50 1017.21 1016.86 1016.50 1016.15 1015.83 1015.54 1015.29 1015.07 1014.85 1014.64 1014.42 1014.19 1013.98 1013.81 1013.68 1013.63 1013.63 1013.69 1013.79 1013.91 1014.02 1014.10 1014.16 1014.20 1014.22 1014.24 1014.27 1014.33 1014.40 1014.50 1014.62 1014.74 1014.87 1014.99 1015.10 1015.19 1015.27 1015.33 1015.37 1015.40 1015.42
1018.16 1017.90 1017.56 1017.19 1016.80 1016.41 1016.06 1015.74 1015.45 1015.19 1014.94 1014.68 1014.42 1014.16 1013.91 1013.69 1013.50 1013.38 1013.32 1013.31 1013.34 1013.39 1013.44 1013.49 1013.51 1013.52 1013.52 1013.51 1013.52 1013.55 1013.61 1013.69 1013.81 1013.95 1014.09 1014.25 1014.39 1014.52 1014.63 1014.72 1014.78 1014.82 1014.86
1018.61 1018.33 1017.99 1017.60 1017.20 1016.80 1016.43 1016.10 1015.79 1015.50 1015.21 1014.92 1014.62 1014.31 1014.00 1013.71 1013.45 1013.23 1013.07 1012.96 1012.90 1012.86 1012.85 1012.85 1012.84 1012.82 1012.80 1012.78 1012.76 1012.77 1012.80 1012.86 1012.96 1013.08 1013.23 1013.40 1013.57 1013.73 1013.87 1014.00 1014.10 1014.18 1014.24
1019.05 1018.77 1018.44 1018.06 1017.67 1017.29 1016.92 1016.58 1016.25 1015.94 1015.63 1015.30 1014.96 1014.60 1014.22 1013.85 1013.50 1013.18 1012.90 1012.68 1012.52 1012.40 1012.32 1012.27 1012.23 1012.20 1012.17 1012.14 1012.10 1012.08 1012.07 1012.08 1012.13 1012.21 1012.33 1012.47 1012.64 1012.81 1012.98 1013.15 1013.29 1013.42 1013.54
1019.44 1019.19 1018.88 1018.54 1018.18 1017.82 1017.46 1017.12 1016.78 1016.44 1016.10 1015.74 1015.36 1014.95 1014.52 1014.07 1013.63 1013.22 1012.84 1012.52 1012.26 1012.07 1011.93 1011.85 1011.80 1011.76 1011.72 1011.68 1011.63 1011.56 1011.50 1011.44 1011.41 1011.41 1011.45 1011.53 1011.66 1011.81 1011.98 1012.16 1012.34 1012.52 1012.69
1019.77 1019.56 1019.30 1019.01 1018.69 1018.35 1018.01 1017.66 1017.31 1016.95 1016.57 1016.18 1015.77 1015.32 1014.84 1014.35 1013.85 1013.36 1012.91 1012.51 1012.18 1011.94 1011.76 1011.66 1011.61 1011.57 1011.55 1011.50 1011.42 1011.30 1011.16 1011.01 1010.87 1010.75 1010.68 1010.66 1010.69 1010.78 1010.91 1011.08 1011.27 1011.47 1011.69
1020.05 1019.88 1019.67 1019.42 1019.14 1018.83 1018.50 1018.15 1017.78 1017.40 1017.00 1016.59 1016.15 1015.69 1015.20 1014.68 1014.15 1013.63 1013.14 1012.70 1012.33 1012.06 1011.87 1011.76 1011.71 1011.69 1011.67 1011.61 1011.50 1011.34 1011.12 1010.85 1010.58 1010.32 1010.10 1009.94 1009.84 1009.82 1009.87 1009.98 1010.14 1010.33 1010.56
1020.26 1020.13 1019.97 1019.77 1019.53 1019.25 1018.93 1018.57 1018.19 1017.79 1017.38 1016.96 1016.52 1016.06 1015.59 1015.08 1014.56 1014.04 1013.55 1013.10 1012.73 1012.44 1012.26 1012.15 1012.12 1012.11 1012.09 1012.02 1011.88 1011.66 1011.35 1010.98 1010.57 1010.16 1009.78 1009.45 1009.20 1009.04 1008.97 1008.97 1009.05 1009.19 1009.38
1020.43 1020.33 1020.21 1020.05 1019.84 1019.58 1019.27 1018.91 1018.52 1018.12 1017.71 1017.30 1016.89 1016.47 1016.03 1015.57 1015.10 1014.61 1014.14 1013.72 1013.35 1013.08 1012.90 1012.80 1012.77 1012.76 1012.74 1012.66 1012.49 1012.22 1011.84 1011.37 1010.84 1010.29 1009.76 1009.27 1008.86 1008.54 1008.32 1008.19 1008.15 1008.18 1008.29
1020.57 1020.49 1020.40 1020.27 1020.08 1019.84 1019.54 1019.19 1018.81 1018.42 1018.03 1017.66 1017.30 1016.93 1016.56 1016.17 1015.76 1015.33 1014.90 1014.51 1014.16 1013.90 1013.72 1013.62 1013.58 1013.57 1013.53 1013.44 1013.24 1012.93 1012.49 1011.96 1011.34 1010.69 1010.04 1009.42 1008.87 1008.40 1008.02 1007.74 1007.54 1007.44 1007.42
1020.69 1020.63 1020.55 1020.43 1020.27 1020.04 1019.76 1019.43 1019.08 1018.72 1018.38 1018.05 1017.76 1017.47 1017.17 1016.86 1016.51 1016.15 1015.77 1015.40 1015.08 1014.82 1014.63 1014.52 1014.46 1014.42 1014.36 1014.24 1014.02 1013.68 1013.22 1012.65 1011.99 1011.28 1010.56 1009.85 1009.20 1008.61 1008.10 1007.67 1007.33 1007.06 1006.89
1020.82 1020.75 1020.67 1020.57 1020.42 1020.21 1019.95 1019.66 1019.34 1019.03 1018.75 1018.49 1018.26 1018.05 1017.83 1017.59 1017.32 1017.01 1016.67 1016.33 1016.02 1015.75 1015.54 1015.39 1015.30 1015.22 1015.13 1014.98 1014.73 1014.38 1013.92 1013.34 1012.68 1011.97 1011.23 1010.50 1009.79 1009.14 1008.53 1007.99 1007.51 1007.10 1006.77
1020.94 1020.86 1020.79 1020.68 1020.54 1020.36 1020.13 1019.87 1019.61 1019.36 1019.14 1018.95 1018.79 1018.65 1018.50 1018.33 1018.11 1017.84 1017.54 1017.22 1016.90 1016.62 1016.38 1016.19 1016.04 1015.92 1015.78 1015.59 1015.33 1014.97 1014.51 1013.96 1013.33 1012.65 1011.94 1011.23 1010.54 1009.87 1009.22 1008.61 1008.05 1007.53 1007.07
1021.05 1020.97 1020.89 1020.79 1020.65 1020.49 1020.30 1020.08 1019.87 1019.68 1019.52 1019.40 1019.30 1019.22 1019.12 1018.99 1018.81 1018.58 1018.30 1017.99 1017.67 1017.37 1017.10 1016.87 1016.67 1016.49 1016.29 1016.06 1015.77 1015.40 1014.95 1014.43 1013.86 1013.24 1012.60 1011.95 1011.31 1010.67 1010.04 1009.43 1008.82 1008.24 1007.70
1021.15 1021.06 1020.97 1020.87 1020.75 1020.61 1020.44 1020.27 1020.11 1019.97 1019.87 1019.79 1019.74 1019.69 1019.63 1019.54 1019.39 1019.18 1018.92 1018.62 1018.31 1017.99 1017.70 1017.43 1017.18 1016.94 1016.69 1016.40 1016.07 1015.69 1015.25 1014.76 1014.23 1013.68 1013.12 1012.55 1011.99 1011.42 1010.86 1010.28 1009.69 1009.11 1008.54
1021.20 1021.12 1021.03 1020.93 1020.82 1020.70 1020.56 1020.43 1020.31 1020.21 1020.14 1020.10 1020.07 1020.05 1020.01 1019.93 1019.80 1019.62 1019.38 1019.10 1018.80 1018.49 1018.18 1017.88 1017.60 1017.31 1017.00 1016.67 1016.29 1015.88 1015.43 1014.95 1014.46 1013.96 1013.47 1012.98 1012.51 1012.03 1011.54 1011.03 1010.51 1009.97 1009.43
1021.17 1021.11 1021.03 1020.94 1020.85 1020.75 1020.64 1020.53 1020.44 1020.37 1020.32 1020.29 1020.28 1020.26 1020.22 1020.16 1020.05 1019.88 1019.67 1019.43 1019.15 1018.86 1018.57 1018.26 1017.95 1017.63 1017.28 1016.89 1016.48 1016.02 1015.55 1015.06 1014.58 1014.11 1013.67 1013.24 1012.83 1012.43 1012.02 1011.59 1011.14 1010.68 1010.20
1021.04 1021.00 1020.95 1020.89 1020.82 1020.74 1020.66 1020.58 1020.51 1020.45 1020.41 1020.38 1020.36 1020.34 1020.31 1020.25 1020.15 1020.02 1019.84 1019.63 1019.40 1019.15 1018.87 1018.59 1018.27 1017.93 1017.55 1017.13 1016.67 1016.18 1015.68 1015.17 1014.68 1014.21 1013.77 1013.37 1013.00 1012.64 1012.28 1011.92 1011.54 1011.15 1010.75
1020.79 1020.80 1020.79 1020.76 1020.73 1020.68 1020.62 1020.56 1020.50 1020.45 1020.41 1020.38 1020.36 1020.33 1020.30 1020.24 1020.16 1020.05 1019.91 1019.74 1019.56 1019.35 1019.11 1018.85 1018.55 1018.21 1017.82 1017.38 1016.90 1016.38 1015.85 1015.32 1014.80 1014.31 1013.87 1013.45 1013.08 1012.72 1012.38 1012.04 1011.70 1011.36 1011.02
1020.41 1020.48 1020.53 1020.55 1020.55 1020.54 1020.51 1020.47 1020.43 1020.39 1020.35 1020.32 1020.29 1020.26 1020.22 1020.16 1020.09 1020.01 1019.90 1019.77 1019.63 1019.46 1019.26 1019.03 1018.76 1018.44 1018.06 1017.63 1017.14 1016.62 1016.08 1015.53 1015.00 1014.49 1014.00 1013.56 1013.14 1012.75 1012.38 1012.02 1011.67 1011.34 1011.03
1019.94 1020.08 1020.18 1020.26 1020.31 1020.34 1020.35 1020.33 1020.31 1020.28 1020.25 1020.21 1020.18 1020.14 1020.10 1020.05 1019.99 1019.91 1019.82 1019.72 1019.61 1019.47 1019.31 1019.12 1018.88 1018.59 1018.24 1017.83 1017.38 1016.88 1016.35 1015.81 1015.27 1014.74 1014.23 1013.73 1013.26 1012.80 1012.36 1011.94 1011.54 1011.17 1010.84
1019.42 1019.62 1019.78 1019.92 1020.02 1020.09 1020.12 1020.14 1020.13 1020.12 1020.10 1020.07 1020.04 1020.01 1019.96 1019.91 1019.85 1019.78 1019.69 1019.60 1019.50 1019.38 1019.24 1019.07 1018.87 1018.62 1018.31 1017.96 1017.56 1017.11 1016.63 1016.12 1015.60 1015.06 1014.53 1013.99 1013.44 1012.91 1012.38 1011.87 1011.38 1010.94 1010.55
1018.88 1019.14 1019.36 1019.54 1019.69 1019.79 1019.86 1019.90 1019.91 1019.92 1019.91 1019.90 1019.88 1019.85 1019.81 1019.75 1019.68 1019.60 1019.51 1019.41 1019.30 1019.18 1019.05 1018.90 1018.72 1018.51 1018.27 1017.98 1017.64 1017.27 1016.85 1016.40 1015.92 1015.40 1014.86 1014.29 1013.69 1013.08 1012.46 1011.85 1011.27 1010.73 1010.25
1018.38 1018.68 1018.94 1019.16 1019.33 1019.46 1019.55 1019.61 1019.65 1019.68 1019.69 1019.69 1019.69 1019.66 1019.62 1019.57 1019.48 1019.39 1019.28 1019.16 1019.03 1018.89 1018.76 1018.61 1018.46 1018.29 1018.09 1017.87 1017.61 1017.31 1016.98 1016.60 1016.17 1015.69 1015.16 1014.58 1013.96 1013.29 1012.60 1011.90 1011.22 1010.58 1010.01
1017.96 1018.28 1018.56 1018.79 1018.98 1019.11 1019.22 1019.29 1019.35 1019.39 1019.42 1019.45 1019.45 1019.44 1019.41 1019.35 1019.26 1019.14 1019.01 1018.86 1018.71 1018.56 1018.41 1018.27 1018.13 1017.98 1017.83 1017.66 1017.46 1017.24 1016.97 1016.66 1016.29 1015.86 1015.36 1014.79 1014.16 1013.46 1012.73 1011.98 1011.23 1010.52 1009.87
1017.61 1017.94 1018.21 1018.44 1018.62 1018.76 1018.86 1018.94 1019.01 1019.07 1019.12 1019.16 1019.19 1019.19 1019.16 1019.10 1019.01 1018.88 1018.73 1018.56 1018.39 1018.22 1018.07 1017.92 1017.78 1017.66 1017.53 1017.39 1017.24 1017.06 1016.85 1016.58 1016.26 1015.86 1015.40 1014.85 1014.23 1013.55 1012.81 1012.03 1011.26 1010.51 1009.81
Thickness
5683 5683 5683 5684 5684 5684 5684 5684 5685 5686 5687 5688 5688 5688 5688 5688 5688 5688 5687 5686 5685 5684 5682 5681 5680 5679 5678 5677 5676 5675 5674 5673 5672 5671 5670 5668 5667 5667 5666 5665 5664 5663 5662
5675 5676 5676 5676 5677 5677 5677 5677 5678 5679 5680 5681 5682 5682 5683 5683 5683 5683 5682 5681 5680 5679 5677 5676 5675 5674 5673 5673 5672 5671 5670 5669 5668 5667 5666 5665 5664 5663 5662 5661 5660 5659 5658
5668 5669 5669 5669 5669 5670 5670 5670 5670 5671 5672 5673 5674 5675 5676 5677 5677 5677 5677 5676 5675 5674 5672 5671 5670 5669 5668 5668 5668 5667 5666 5665 5664 5663 5662 5661 5660 5659 5657 5657 5656 5655 5654
5660 5661 5661 5661 5661 5662 5662 5662 5662 5662 5663 5664 5665 5667 5668 5669 5670 5670 5670 5669 5668 5668 5667 5665 5664 5663 5663 5662 5662 5662 5661 5660 5659 5658 5657 5656 5655 5654 5653 5653 5652 5651 5651
5652 5652 5652 5653 5653 5653 5653 5653 5654 5654 5654 5655 5657 5659 5660 5661 5661 5662 5662 5662 5661 5661 5660 5659 5658 5657 5656 5655 5655 5655 5655 5654 5654 5653 5652 5651 5650 5649 5649 5648 5648 5647 5647
5643 5644 5644 5644 5644 5644 5644 5644 5644 5645 5645 5646 5648 5650 5651 5653 5653 5653 5653 5654 5653 5652 5652 5651 5651 5649 5648 5647 5647 5648 5648 5648 5647 5646 5646 5645 5645 5644 5644 5644 5643 5643 5643
5634 5635 5635 5635 5635 5635 5634 5635 5635 5635 5635 5636 5637 5638 5642 5645 5646 5645 5644 5644 5643 5643 5642 5641 5641 5640 5639 5638 5638 5638 5639 5639 5639 5639 5639 5638 5638 5638 5638 5638 5638 5638 5638
5624 5625 5625 5625 5625 5625 5625 5625 5624 5624 5624 5625 5624 5624 5626 5631 5634 5636 5634 5633 5633 5632 5632 5631 5630 5629 5628 5628 5627 5627 5628 5628 5629 5630 5630 5629 5630 5631 5631 5631 5631 5632 5632
5614 5615 5615 5615 5615 5615 5615 5615 5614 5613 5613 5613 5614 5612 5611 5614 5617 5622 5622 5622 5621 5620 5620 5620 5619 5618 5618 5617 5616 5616 5616 5617 5617 5618 5619 5620 5620 5621 5622 5623 5624 5625 5625
5604 5605 5605 5605 5605 5605 5605 5605 5605 5604 5603 5603 5603 5603 5602 5602 5602 5607 5610 5609 5609 5608 5607 5607 5607 5606 5606 5605 5604 5604 5604 5605 5605 5606 5607 5609 5610 5610 5612 5613 5615 5616 5617
5595 5595 5595 5595 5595 5595 5595 5594 5594 5594 5594 5593 5592 5592 5591 5591 5591 5591 5595 5597 5596 5595 5594 5594 5593 5593 5592 5591 5591 5591 5591 5591 5592 5592 5594 5595 5597 5598 5600 5602 5604 5606 5608
5585 5585 5585 5585 5585 5585 5585 5584 5584 5583 5583 5583 5582 5581 5580 5579 5579 5578 5580 5583 5583 5583 5582 5581 5580 5579 5578 5577 5576 5577 5577 5577 5577 5578 5580 5581 5583 5584 5586 5588 5591 5593 5596
5576 5576 5576 5576 5575 5575 5574 5574 5574 5573 5572 5571 5571 5570 5570 5569 5568 5567 5567 5569 5571 5572 5570 5568 5567 5566 5564 5562 5562 5562 5563 5563 5563 5564 5566 5567 5568 5569 5571 5574 5577 5579 5582
5568 5568 5567 5567 5566 5565 5565 5564 5563 5562 5562 5561 5560 5559 5559 5558 5556 5555 5555 5555 5557 5560 5558 5555 5553 5551 5549 5548 5547 5547 5547 5548 5549 5550 5551 5552 5553 5555 5557 5560 5563 5565 5569
5560 5560 5559 5558 5557 5556 5555 5554 5553 5552 5551 5550 5550 5549 5548 5546 5545 5544 5543 5541 5540 5544 5546 5543 5538 5536 5535 5534 5533 5533 5533 5534 5535 5536 5537 5538 5539 5541 5543 5545 5548 5550 5554
5552 5551 5550 5549 5548 5547 5545 5544 5543 5542 5540 5539 5539 5538 5537 5536 5534 5532 5531 5530 5528 5527 5529 5528 5524 5521 5520 5520 5519 5519 5520 5520 5521 5521 5522 5524 5526 5527 5529 5531 5533 5536 5539
5543 5542 5542 5540 5539 5537 5536 5534 5532 5531 5530 5529 5528 5527 5526 5524 5523 5521 5520 5518 5516 5514 5514 5514 5510 5508 5507 5506 5506 5506 5506 5506 5506 5507 5509 5510 5512 5514 5516 5517 5520 5522 5525
5535 5534 5533 5531 5529 5528 5526 5524 5522 5521 5520 5518 5517 5515 5514 5513 5511 5509 5508 5506 5504 5502 5500 5500 5497 5495 5493 5493 5493 5493 5493 5493 5493 5494 5495 5496 5498 5500 5502 5503 5505 5508 5511
5526 5525 5523 5522 5520 5518 5516 5514 5512 5511 5509 5507 5505 5504 5502 5500 5498 5496 5494 5492 5490 5489 5487 5485 5484 5481 5480 5480 5479 5479 5479 5478 5479 5480 5481 5482 5484 5485 5487 5489 5491 5493 5496
5517 5515 5514 5512 5510 5508 5506 5504 5502 5500 5498 5496 5494 5492 5490 5488 5485 5483 5481 5478 5477 5474 5472 5470 5469 5467 5466 5466 5464 5463 5463 5463 5464 5465 5466 5467 5468 5469 5471 5473 5476 5478 5480
5508 5506 5504 5502 5500 5498 5496 5493 5491 5489 5487 5485 5482 5480 5478 5476 5473 5471 5468 5464 5462 5459 5457 5455 5454 5452 5450 5449 5447 5447 5446 5447 5449 5449 5450 5450 5451 5453 5455 5456 5458 5461 5464
5499 5497 5495 5493 5490 5488 5486 5483 5480 5477 5475 5472 5470 5467 5466 5463 5461 5458 5455 5452 5449 5445 5442 5440 5438 5436 5433 5431 5430 5429 5428 5429 5431 5433 5432 5435 5435 5437 5438 5439 5441 5443 5446
5490 5487 5485 5483 5480 5478 5476 5473 5470 5466 5463 5460 5458 5455 5453 5450 5447 5444 5441 5438 5435 5432 5430 5426 5423 5420 5417 5415 5413 5412 5411 5410 5412 5414 5415 5419 5420 5420 5421 5422 5423 5426 5428
5481 5478 5476 5473 5470 5468 5465 5462 5459 5455 5452 5449 5446 5443 5440 5437 5434 5432 5429 5425 5421 5418 5415 5413 5409 5406 5402 5400 5398 5397 5396 5397 5398 5398 5397 5400 5404 5404 5406 5406 5407 5408 5410
5472 5469 5466 5463 5460 5457 5455 5451 5448 5443 5440 5437 5435 5431 5428 5424 5422 5420 5416 5411 5408 5404 5401 5398 5395 5392 5389 5387 5385 5383 5381 5381 5383 5384 5381 5380 5384 5386 5390 5391 5391 5390 5391
5463 5460 5457 5454 5451 5447 5445 5441 5437 5433 5429 5426 5423 5419 5416 5412 5409 5406 5402 5398 5394 5391 5388 5385 5382 5379 5376 5373 5370 5367 5364 5363 5363 5365 5364 5362 5363 5363 5371 5375 5373 5372 5374